Regional Weather Roundup
Issued by NWS

Home | Current Version | Previous Version | Graphics & Text | Print | Product List | Glossary On
Versions: 1 2 3 4 5 6 7 8 9 10 11 12 13 14 15 16 17 18 19 20 21 22 23 24 25 26 27 28 29 30 31 32 33 34 35 36 37 38 39 40 41 42 43 44 45 46 47 48 49 50
000
ASUS43 KDMX 101003
RWRIA

WEATHER ROUNDUP FOR IOWA
NATIONAL WEATHER SERVICE DES MOINES IA
400 AM CST WED FEB 10 2016

NOTE: "FAIR" INDICATES FEW OR NO CLOUDS BELOW 12,000 FEET WITH NO
SIGNIFICANT WEATHER AND/OR OBSTRUCTIONS TO VISIBILITY.

* - THESE STATIONS ARE NOT NWS STATIONS...THUS NOT UNDER NWS
QUALITY CONTROL.  THEY ALSO DO NOT REPORT WEATHER SUCH
AS PRECIPITATION OR FOG.

IAZ001>003-012>014-020>022-031>034-043>046-101100-
   NORTHWEST IOWA

CITY           SKY/WX    TMP DP  RH WIND       PRES   REMARKS
CARROLL *      CLOUDY    16  12  86 W3        30.09F
CHEROKEE *     CLOUDY    18  15  86 CALM      30.08F
DENISON *      CLOUDY    18  14  86 CALM      30.08F
LE MARS *      CLOUDY    21  16  79 SE7       30.08F WCI  13
ORANGE CITY *  FLURRIES  19  16  86 CALM      30.06F
SHELDON *      CLOUDY    18  16  93 CALM      30.05F
SIOUX CITY     CLOUDY    20  15  81 E10       30.07F WCI   9
SPENCER        CLOUDY    16   9  74 NE5       30.07F WCI   9
STORM LAKE *   CLOUDY    18  14  86 CALM      30.08S
$$

IAZ055>058-069>071-079>083-090>094-101100-
   SOUTHWEST IOWA

CITY           SKY/WX    TMP DP  RH WIND       PRES   REMARKS
ATLANTIC *     CLOUDY    19  14  79 S3        30.11F
AUDUBON *      CLOUDY    19  14  79 CALM      30.10F
CLARINDA *     CLOUDY    19  16  86 S3        30.14F
COUNCIL BLFS * CLOUDY    21  14  73 S7        30.10F WCI  13
CRESTON *      CLOUDY    19  14  79 CALM      30.12F
HARLAN  *      CLOUDY    18  14  86 CALM      30.14S
LAMONI         MOCLDY    18  12  77 W3        30.12F
RED OAK *      CLOUDY    19  18  93 SW3       30.12F
SHENANDOAH *   CLOUDY    25  19  80 SW5       30.15S WCI  19
$$

IAZ047>049-059>061-072>074-084-101100-
   CENTRAL IOWA

CITY           SKY/WX    TMP DP  RH WIND       PRES   REMARKS
AMES           CLOUDY    13   6  74 NW6       30.13F WCI   4
ANKENY *       CLOUDY    14   7  73 N6        30.13F WCI   5
BOONE *        CLOUDY    12   7  79 N7        30.10F WCI   2
CHARITON *     CLOUDY    14   9  79 CALM      30.13F
DES MOINES     CLOUDY    17   6  62 N5        30.13F WCI  10
GRINNELL*      CLOUDY     9   5  85 NW5       30.11F WCI   0
KNOXVILLE *    CLOUDY    14   7  73 NW7       30.12F WCI   4
MARSHALLTOWN   CLOUDY     6   1  80 W5        30.09F WCI  -3
NEWTON *       CLOUDY    10   5  79 NW7       30.11F WCI   0
PELLA *        MOCLDY    11   7  83 W5        30.15F WCI   3
$$

IAZ004>006-015-016-023>025-035-036-101100-
   NORTH CENTRAL IOWA

CITY           SKY/WX    TMP DP  RH WIND       PRES   REMARKS
ALGONA *       CLOUDY    12   5  73 N7        30.09F WCI   2
CLARION *      CLOUDY     5   1  85 N5        30.10F WCI  -4
ESTHERVILLE    CLOUDY    10   2  69 N6        30.08F WCI   0
FORT DODGE *   CLOUDY    12   5  73 CALM      30.12S
MASON CITY     CLOUDY     2  -2  83 W9        30.11R WCI -13
FOREST CITY *  CLOUDY     7   1  78 NW6       30.09R WCI  -3
WEBSTER CITY * CLOUDY    10   5  79 NW8       30.10S WCI  -1
IOWA FALLS *     N/A      5   1  85 CALM      30.09F
$$

IAZ007>011-017>019-026>030-037>042-050>054-066-101100-
   NORTHEAST IOWA

CITY           SKY/WX    TMP DP  RH WIND       PRES   REMARKS
CEDAR RAPIDS   CLOUDY     6   2  83 NW9       30.08F WCI  -8
CHARLES CITY * PTCLDY     1  -2  85 NW10      30.08S WCI -14
CLINTON *      CLEAR      6   1  80 NW9       30.08S WCI  -8
DECORAH *      PTCLDY    -2  -8  78 NW6       30.05R WCI -14
DUBUQUE        CLEAR      5  -3  69 N13       30.02F WCI -12
MONTICELLO *   CLEAR      5  -4  66 NW6       30.07F WCI  -6
OELWEIN *      CLOUDY     0  -6  78 NW8       30.07S WCI -15
WATERLOO       PTCLDY     2  -2  83 W7        30.10S WCI -11
$$

IAZ064-065-067-068-078-101100-
   EAST CENTRAL IOWA

CITY           SKY/WX    TMP DP  RH WIND       PRES   REMARKS
DAVENPORT      CLEAR      6  -1  73 W7        30.09S WCI  -6
IOWA CITY      CLEAR      8   1  73 NW9       30.12F WCI  -5
MT. PLEASANT * CLEAR     12   6  76 W7        30.13S WCI   2
MUSCATINE *    CLEAR      9   1  72 W6        30.13S WCI  -1
QUAD CITIES    CLEAR      9  -1  64 NW8       30.10S WCI  -3
$$

IAZ062-063-075>077-085>089-095>099-101100-
   SOUTHEAST IOWA

CITY           SKY/WX    TMP DP  RH WIND       PRES   REMARKS
BURLINGTON     CLEAR      9   2  73 W6        30.11F WCI  -1
FAIRFIELD *    CLOUDY    10   3  72 W8        30.12F WCI  -1
FORT MADISON * CLEAR      9   3  78 W6        30.13S WCI  -1
KEOKUK *       CLEAR     12   7  79 W7        30.13F WCI   2
OSKALOOSA *      N/A     10   6  82 NW7       30.13F WCI   0
OTTUMWA        PTCLDY    10   5  80 NW7       30.13F WCI  -1
WASHINGTON *   CLEAR      9   3  78 W7        30.13F WCI  -3
$$

ABBREVIATIONS USED IN REMARKS
   TC - TEMPERATURES IN CELSIUS
  WCI - WIND CHILL INDEX
   HX - HEAT INDEX
  VSB - VISIBILITY
$$




USA.gov is the U.S. government's official web portal to all federal, state and local government web resources and services.